CZ-6A DEB, 54990

Orbit data source: Space-Track

CZ-6A DEB, 54990 is space debris in SSO originally from a launch on Fri, 11 Nov 2022 UTC launched from the Taiyaun Space Center, China (TSC). Debris objects in space refer to the collection of defunct objects orbiting the Earth. Examples of debris include non-operational satellites, rocket bodies, and fragments generated from explosions, collisions, or faulty payload assembly.

Loading next visibility...
Identifier
54990, 2022-151UF
Orbit
SSO
Country
Flag of CNCN / PRC
Related business
Manufacturer
SAST
Mission
Spacecraft
Bus & Motor
Unknown
Mass
Unknown
Launch date (UTC)
2022-11-11 (4 years ago)
Launch vehicle
Unknown
Launch site
Taiyaun Space Center, China (TSC)
Object type
Payload
Rocket body
Debris
Shape & HBR
Unknown shape, 0.1 m
Radar Cross Section
Small (<0.1 m²)

Expand to show TLE details & history
Last TLE update: 11 hours ago

TLE from 11 hours ago
0 CZ-6A DEB
1 54990U 22151UF  26206.62304043  .00007769  00000-0  15618-2 0  9998
2 54990  98.6381 262.2792 0075240 206.4081 153.3275 14.60107224193997
Epoch: 2026-07-25T14:57Z
TLE epoch observation values (Epoch: 2026-07-25T14:57:10.693Z)
Latitude
-0.00001°
Longitude
94.65198°
Altitude
743.43 km
Speed
7.458 km/s
True Right ascension
17h 29m 07s
True Declination
0° 00' 00"
Sunlit
Object was in full shadow at epoch
Visualization orbit readout
Latitude
Unknown
Longitude
Unknown
Altitude
Unknown
Speed
Unknown
Apparent Right ascension
Unknown
Apparent Declination
Unknown
Sunlit
N/A
Visualization observer readout
Local Sidereal Time
15:11:01
Azimuth
Unknown
Elevation
Unknown
Doppler factor
Unknown
Orbital elements
Apogee altitude
743.109 km
Perigee altitude
636.749 km
Semi-major axis
7,068.066 km
Eccentricity
0.00752
Inclination
98.6381°
RAAN
262.2792°
Arg. of periapsis
206.4081°
True anomaly
153.7113°
Mean anomaly
153.3275°
Eccentric anomaly
153.51972°
Mean motion
3.65252 °/min
Orbital period
98.56 mins
BSTAR
0.0015618
Loading maneuver chart data...
Computing Atmospheric mass density...
Loading historical data...
Loading historical data...
Loading historical data...
Loading historical data...
Loading historical data...
Loading historical data...
Loading historical data...

Documentation

Showing up to 5 results
|